LIM260 LICG-DTTA

Flight info

Callsign LIM260
Flight time 0h 35m
Altitude 19000
Route RUBRI DCT SONAK/N0295F180 DCT DIDON DCT NIREM
Aircraft TBM8/L-SDFGRWY/S

Departure

Time 2026-05-01 09:21
Airport Pantelleria Airport (LICG)

Arrival

Time 2026-05-01 09:56
Airport Tunis Carthage International Airport (DTTA)
Time Latitude Longitude Altitude Speed Heading
2026-05-01 09:15 36.81703 11.96698 632 ft 1 kts 63°
2026-05-01 09:15 36.81702 11.96695 629 ft 0 kts 68°
2026-05-01 09:17 36.81706 11.96707 633 ft 4 kts 68°
2026-05-01 09:17 36.81717 11.96767 634 ft 1 kts 79°
2026-05-01 09:18 36.81719 11.96780 631 ft 7 kts 71°
2026-05-01 09:18 36.81773 11.96888 633 ft 11 kts 122°
2026-05-01 09:19 36.81708 11.97038 641 ft 4 kts 134°
2026-05-01 09:19 36.81673 11.97022 641 ft 7 kts 246°
2026-05-01 09:19 36.81670 11.97009 640 ft 0 kts 264°
2026-05-01 09:20 36.81614 11.96711 640 ft 68 kts 256°
2026-05-01 09:20 36.81238 11.94821 1121 ft 135 kts 254°
2026-05-01 09:21 36.80029 11.93577 2497 ft 116 kts 144°
2026-05-01 09:21 36.79758 11.94394 3177 ft 109 kts 72°
2026-05-01 09:21 36.81052 11.95824 4087 ft 136 kts 49°
2026-05-01 09:22 36.81842 11.98024 5293 ft 148 kts 71°
2026-05-01 09:22 36.82370 12.00587 6443 ft 156 kts 71°
2026-05-01 09:23 36.82625 12.01912 6968 ft 158 kts 71°
2026-05-01 09:23 36.83148 12.04612 7987 ft 164 kts 71°
2026-05-01 09:24 36.83583 12.07450 9000 ft 174 kts 93°
2026-05-01 09:24 36.82987 12.08769 9515 ft 182 kts 142°
2026-05-01 09:24 36.80677 12.10081 10514 ft 184 kts 159°
2026-05-01 09:25 36.78595 12.09289 11493 ft 159 kts 252°
2026-05-01 09:25 36.78496 12.06657 12489 ft 153 kts 276°
2026-05-01 09:26 36.78494 12.05320 12997 ft 155 kts 272°
2026-05-01 09:26 36.78399 12.02615 14002 ft 157 kts 271°
2026-05-01 09:26 36.78342 12.01260 14461 ft 156 kts 271°
2026-05-01 09:27 36.78226 11.98537 15385 ft 158 kts 271°
2026-05-01 09:27 36.78166 11.97166 15849 ft 159 kts 271°
2026-05-01 09:27 36.78107 11.95790 16327 ft 159 kts 271°
2026-05-01 09:28 36.78047 11.94408 16800 ft 160 kts 271°
2026-05-01 09:28 36.77986 11.93019 17255 ft 161 kts 271°
2026-05-01 09:28 36.77926 11.91624 17712 ft 162 kts 271°
2026-05-01 09:28 36.77864 11.90220 18164 ft 163 kts 271°
2026-05-01 09:29 36.77740 11.87391 18978 ft 164 kts 271°
2026-05-01 09:29 36.77678 11.85930 19154 ft 178 kts 271°
2026-05-01 09:30 36.77531 11.82533 19168 ft 210 kts 270°
2026-05-01 09:30 36.77446 11.80675 19166 ft 218 kts 270°
2026-05-01 09:30 36.77272 11.76798 19164 ft 229 kts 270°
2026-05-01 09:31 36.77182 11.74795 19167 ft 235 kts 270°
2026-05-01 09:31 36.77089 11.72741 19167 ft 240 kts 270°
2026-05-01 09:31 36.76898 11.68541 19167 ft 248 kts 269°
2026-05-01 09:32 36.76800 11.66385 19167 ft 250 kts 269°
2026-05-01 09:32 36.76599 11.62018 19165 ft 253 kts 269°
2026-05-01 09:32 36.76497 11.59825 19165 ft 254 kts 269°
2026-05-01 09:33 36.76396 11.57627 19164 ft 254 kts 269°
2026-05-01 09:33 36.76293 11.55426 19165 ft 254 kts 269°
2026-05-01 09:33 36.76086 11.51012 19164 ft 256 kts 269°
2026-05-01 09:34 36.75982 11.48796 19164 ft 257 kts 269°
2026-05-01 09:34 36.75877 11.46571 19163 ft 257 kts 269°
2026-05-01 09:34 36.75665 11.42109 19167 ft 258 kts 269°
2026-05-01 09:35 36.75557 11.39873 19167 ft 258 kts 269°
2026-05-01 09:35 36.75342 11.35399 19165 ft 259 kts 269°
2026-05-01 09:35 36.75234 11.33161 19164 ft 259 kts 269°
2026-05-01 09:36 36.75124 11.30911 19164 ft 259 kts 269°
2026-05-01 09:36 36.75015 11.28664 19165 ft 260 kts 269°
2026-05-01 09:36 36.74905 11.26417 19163 ft 260 kts 269°
2026-05-01 09:36 36.74794 11.24165 19162 ft 260 kts 269°
2026-05-01 09:37 36.74683 11.21914 19162 ft 260 kts 269°
2026-05-01 09:37 36.74459 11.17406 19124 ft 261 kts 269°
2026-05-01 09:37 36.74345 11.15072 18658 ft 278 kts 269°
2026-05-01 09:38 36.74094 11.10095 17649 ft 295 kts 269°
2026-05-01 09:38 36.73965 11.07521 17136 ft 299 kts 269°
2026-05-01 09:38 36.73837 11.04926 16628 ft 301 kts 269°
2026-05-01 09:39 36.73567 10.99720 15240 ft 298 kts 269°
2026-05-01 09:39 36.73436 10.97155 14516 ft 294 kts 269°
2026-05-01 09:39 36.73312 10.94627 13797 ft 290 kts 269°
2026-05-01 09:40 36.73180 10.92131 13013 ft 287 kts 269°
2026-05-01 09:40 36.72921 10.87211 11503 ft 282 kts 269°
2026-05-01 09:40 36.72794 10.84781 10773 ft 280 kts 268°
2026-05-01 09:41 36.72666 10.82367 10058 ft 278 kts 268°
2026-05-01 09:41 36.72413 10.77596 8526 ft 274 kts 268°
2026-05-01 09:41 36.72286 10.75227 7785 ft 273 kts 268°
2026-05-01 09:42 36.72160 10.72877 7069 ft 271 kts 268°
2026-05-01 09:42 36.72031 10.70546 6346 ft 265 kts 268°
2026-05-01 09:42 36.71795 10.66170 4857 ft 246 kts 268°
2026-05-01 09:43 36.71560 10.61729 3564 ft 264 kts 266°
2026-05-01 09:43 36.71429 10.59450 3095 ft 263 kts 266°
2026-05-01 09:43 36.71305 10.57223 3005 ft 252 kts 266°
2026-05-01 09:44 36.71071 10.52987 3002 ft 241 kts 266°
2026-05-01 09:44 36.70955 10.50911 3003 ft 240 kts 266°
2026-05-01 09:44 36.70847 10.48840 2995 ft 240 kts 266°
2026-05-01 09:45 36.70729 10.46781 2994 ft 236 kts 266°
2026-05-01 09:45 36.70502 10.42757 2992 ft 233 kts 266°
2026-05-01 09:45 36.70428 10.41402 2997 ft 232 kts 266°
2026-05-01 09:46 36.70274 10.38740 2997 ft 233 kts 266°
2026-05-01 09:46 36.70160 10.36724 3000 ft 234 kts 266°
2026-05-01 09:46 36.70047 10.34704 2994 ft 233 kts 266°
2026-05-01 09:46 36.69930 10.32690 2992 ft 232 kts 266°
2026-05-01 09:47 36.69851 10.31339 2995 ft 231 kts 266°
2026-05-01 09:47 36.69736 10.29345 2992 ft 231 kts 267°
2026-05-01 09:47 36.69623 10.27346 2997 ft 232 kts 267°
2026-05-01 09:47 36.69511 10.25360 2996 ft 233 kts 267°
2026-05-01 09:48 36.69389 10.23326 2998 ft 233 kts 266°
2026-05-01 09:48 36.69273 10.21320 2996 ft 232 kts 267°
2026-05-01 09:48 36.69161 10.19347 2995 ft 231 kts 266°
2026-05-01 09:48 36.69043 10.17350 3000 ft 231 kts 267°
2026-05-01 09:49 36.68925 10.15351 2995 ft 231 kts 267°
2026-05-01 09:49 36.68810 10.13355 2997 ft 232 kts 267°
2026-05-01 09:49 36.68562 10.11373 2990 ft 233 kts 251°
2026-05-01 09:49 36.67629 10.09743 2994 ft 234 kts 222°
2026-05-01 09:50 36.66202 10.08802 2993 ft 234 kts 193°
2026-05-01 09:50 36.64599 10.08771 2993 ft 230 kts 166°
2026-05-01 09:50 36.63181 10.09630 3000 ft 227 kts 139°
2026-05-01 09:50 36.62228 10.11165 3000 ft 225 kts 112°
2026-05-01 09:51 36.61913 10.13037 3006 ft 221 kts 87°
2026-05-01 09:51 36.62275 10.14868 3007 ft 218 kts 62°
2026-05-01 09:51 36.63180 10.16370 3004 ft 217 kts 43°
2026-05-01 09:51 36.64521 10.17183 3005 ft 218 kts 12°
2026-05-01 09:52 36.66014 10.17497 3009 ft 218 kts 12°
2026-05-01 09:52 36.67493 10.17927 3003 ft 219 kts 13°
2026-05-01 09:52 36.68983 10.18322 2967 ft 221 kts 13°
2026-05-01 09:52 36.70522 10.18720 2704 ft 231 kts 13°
2026-05-01 09:53 36.72109 10.19175 2394 ft 236 kts 13°
2026-05-01 09:53 36.73560 10.19553 2101 ft 185 kts 13°
2026-05-01 09:53 36.74677 10.19860 1885 ft 148 kts 14°
2026-05-01 09:53 36.75722 10.20154 1585 ft 164 kts 14°
2026-05-01 09:54 36.76821 10.20451 1369 ft 159 kts 13°
2026-05-01 09:54 36.77916 10.20716 1059 ft 161 kts 12°
2026-05-01 09:54 36.79000 10.20998 855 ft 158 kts 14°
2026-05-01 09:54 36.80092 10.21345 693 ft 166 kts 12°
2026-05-01 09:55 36.81218 10.21632 558 ft 156 kts 13°
2026-05-01 09:55 36.82063 10.21867 433 ft 111 kts 14°
2026-05-01 09:55 36.82792 10.22066 301 ft 105 kts 13°
2026-05-01 09:55 36.83496 10.22264 166 ft 103 kts 11°
2026-05-01 09:56 36.84191 10.22452 35 ft 97 kts 12°
2026-05-01 09:56 36.84695 10.22587 25 ft 47 kts 12°
2026-05-01 09:56 36.84882 10.22637 27 ft 13 kts 11°
2026-05-01 09:56 36.84930 10.22589 27 ft 10 kts 289°
2026-05-01 09:57 36.84955 10.22510 27 ft 9 kts 291°
2026-05-01 09:57 36.84975 10.22444 27 ft 7 kts 287°
2026-05-01 09:57 36.84958 10.22395 27 ft 9 kts 208°
2026-05-01 09:57 36.84859 10.22360 25 ft 19 kts 193°
2026-05-01 09:58 36.84706 10.22317 25 ft 25 kts 193°
2026-05-01 09:58 36.84544 10.22270 27 ft 19 kts 193°
2026-05-01 09:58 36.84491 10.22204 25 ft 11 kts 279°
2026-05-01 09:58 36.84493 10.22125 26 ft 8 kts 229°
2026-05-01 09:59 36.84447 10.22107 25 ft 6 kts 195°
2026-05-01 09:59 36.84410 10.22094 25 ft 7 kts 192°
2026-05-01 09:59 36.84373 10.22058 25 ft 6 kts 262°
2026-05-01 09:59 36.84372 10.21980 25 ft 11 kts 274°
2026-05-01 10:00 36.84345 10.21958 25 ft 7 kts 185°
2026-05-01 10:00 36.84325 10.21973 25 ft 6 kts 99°
2026-05-01 10:00 36.84315 10.22028 25 ft 4 kts 102°
2026-05-01 10:00 36.84311 10.22056 25 ft 3 kts 102°
2026-05-01 10:01 36.84309 10.22064 25 ft 0 kts 101°